Location: *
(46.3500°N, 10.9000°E)
Time: 07:45:17
(UTC+00:00)

Transit 4A - Visible Passes

Search period start: 20 April 2021 00:00
Search period end: 30 April 2021 00:00
Orbit: 869 x 975 km, 66.8° (Epoch: 19 April)

Date Brightness Start Highest point End Pass type
(mag) Time Alt. Az. Time Alt. Az. Time Alt. Az.
20 Apr 9.8 00:59:37 16° WNW 01:02:40 22° NW 01:07:15 10° NNE visible
20 Apr 10.5 02:50:35 10° NNW 02:51:33 10° N 02:52:31 10° N visible
20 Apr 9.4 21:41:15 22° ENE 21:41:15 22° ENE 21:43:52 10° NE visible
20 Apr 8.3 23:24:42 57° NW 23:24:43 57° NW 23:30:44 10° NNE visible
21 Apr 10.1 01:08:24 10° WNW 01:12:25 18° NNW 01:16:22 10° NNE visible
21 Apr 8.9 21:49:44 33° ENE 21:49:44 33° ENE 21:53:31 10° NE visible
21 Apr 8.8 23:33:11 39° WNW 23:34:11 42° NW 23:39:57 10° NNE visible
22 Apr 10.3 01:18:58 10° NW 01:22:14 15° NNW 01:25:28 10° N visible
22 Apr 10.7 03:10:59 10° N 03:11:31 10° N 03:12:03 10° N visible
22 Apr 8.2 21:58:07 52° ENE 21:58:07 52° ENE 22:03:00 10° NE visible
22 Apr 9.3 23:41:34 26° WNW 23:43:44 32° NW 23:49:08 10° NNE visible
23 Apr 10.4 01:29:40 10° NW 01:32:07 12° NNW 01:34:32 10° N visible
23 Apr 10.6 03:19:57 10° N 03:21:30 11° N 03:23:01 10° NNE visible
23 Apr 9.8 20:22:57 13° E 20:22:57 13° E 20:24:14 10° ENE visible
23 Apr 7.8 22:06:23 84° E 22:06:23 84° E 22:12:23 10° NE visible
23 Apr 9.7 23:49:49 16° W 23:53:21 25° NW 23:58:17 10° NNE visible
24 Apr 10.5 01:40:31 10° NNW 01:42:03 11° N 01:43:35 10° N visible
24 Apr 10.5 03:29:01 10° N 03:31:25 12° NNE 03:33:48 10° NE visible
24 Apr 9.2 20:31:04 22° E 20:31:04 22° E 20:34:27 10° ENE visible
24 Apr 8.0 22:14:30 58° WSW 22:15:36 70° NW 22:21:41 10° NNE visible
24 Apr 10.0 23:58:37 10° WNW 00:03:03 20° NNW 00:07:24 10° NNE visible
25 Apr 10.7 01:51:35 10° N 01:52:01 10° N 01:52:28 10° N visible
25 Apr 10.5 03:38:06 10° N 03:41:18 15° NNE 03:44:27 10° NE visible
25 Apr 8.5 20:38:57 34° ESE 20:38:57 34° ESE 20:44:14 10° NE visible
25 Apr 8.6 22:22:22 32° WSW 22:25:00 51° NW 22:30:56 10° NNE visible
26 Apr 10.3 00:09:05 10° WNW 00:12:49 16° NNW 00:16:31 10° NNE visible
26 Apr 8.1 20:46:30 40° SSE 20:47:59 48° ESE 20:53:49 10° NE visible
26 Apr 9.1 22:29:52 15° WSW 22:34:30 38° NW 22:40:08 10° NNE visible
27 Apr 10.5 00:19:43 10° NW 00:22:40 14° NNW 00:25:35 10° N visible
27 Apr 10.8 02:11:09 10° N 02:11:59 10° N 02:12:50 10° NNE visible
27 Apr 9.6 19:10:04 10° ESE 19:11:55 12° E 19:13:57 10° E visible
27 Apr 7.8 20:53:23 24° SSW 20:57:12 69° ESE 21:03:15 10° NE visible
27 Apr 9.6 22:38:44 10° W 22:44:04 29° NW 22:49:18 10° NNE visible
28 Apr 10.6 00:30:29 10° NW 00:32:35 12° NNW 00:34:39 10° N visible
28 Apr 10.7 02:20:08 10° N 02:21:57 11° NNE 02:23:45 10° NNE visible
28 Apr 9.2 19:16:51 10° SE 19:20:52 18° ESE 19:24:52 10° ENE visible
28 Apr 7.9 21:00:15 10° SSW 21:06:30 86° NW 21:12:36 10° NNE visible
28 Apr 10.0 22:48:55 10° W 22:53:42 23° NW 22:58:26 10° NNE visible
29 Apr 10.8 00:41:24 10° NNW 00:42:31 10° N 00:43:39 10° N visible
29 Apr 10.7 02:29:11 10° N 02:31:52 13° NNE 02:34:30 10° NE visible
29 Apr 8.8 19:24:51 10° SSE 19:29:55 27° ESE 19:34:53 10° NE visible
29 Apr 8.3 21:09:42 10° SW 21:15:52 63° NW 21:21:53 10° NNE visible
29 Apr 10.3 22:59:16 10° WNW 23:03:26 18° NNW 23:07:33 10° NNE visible
